• en France
  • Liste des pays
  • À 7 jours
  • Température de l'eau
  • Carte satellitaire
  • Carte météo
  • Widgets météo
  • user-avatar
    Se connecter

    Météo par heure à Korçё

    Ce jour, 19 Juin, Mardi

    Heure Température Précipitation Vent Pression Humidité
    00:00 +14°C° 0 mm 2 m/s 665 mmHg 85%
    01:00 +14°C° 0 mm 2 m/s 665 mmHg 85%
    02:00 +14°C° 0 mm 2 m/s 665 mmHg 86%
    03:00 +13°C° 0 mm 2 m/s 665 mmHg 86%
    04:00 +13°C° 0 mm 2 m/s 665 mmHg 87%
    05:00 +15°C° 0 mm 2 m/s 665 mmHg 83%
    06:00 +16°C° 0 mm 2 m/s 666 mmHg 80%
    07:00 +18°C° 0 mm 2 m/s 666 mmHg 76%
    08:00 +19°C° 0,6 mm 2 m/s 667 mmHg 72%
    09:00 +20°C° 0,6 mm 2 m/s 667 mmHg 67%
    10:00 +21°C° 0,6 mm 2 m/s 668 mmHg 63%
    11:00 +21°C° 1,3 mm 2 m/s 668 mmHg 63%
    12:00 +23°C° 1,3 mm 2 m/s 668 mmHg 63%
    13:00 +21°C° 0 mm 2 m/s 668 mmHg 65%
    14:00 +21°C° 1,2 mm 2 m/s 668 mmHg 66%
    15:00 +22°C° 1,2 mm 1 m/s 668 mmHg 67%
    16:00 +21°C° 1,2 mm 1 m/s 668 mmHg 68%
    17:00 +20°C° 0,9 mm 1 m/s 668 mmHg 72%
    18:00 +19°C° 0,9 mm 1 m/s 668 mmHg 76%
    19:00 +18°C° 0,9 mm 1 m/s 667 mmHg 80%
    20:00 +16°C° 0,1 mm 1 m/s 668 mmHg 81%
    21:00 +15°C° 0,1 mm 1 m/s 668 mmHg 82%
    22:00 +14°C° 0,1 mm 1 m/s 668 mmHg 82%
    23:00 +14°C° 0 mm 1 m/s 668 mmHg 82%

    Demain, 20 Juin, Mercredi

    Heure Température Précipitation Vent Pression Humidité
    00:00 +14°C° 0 mm 1 m/s 668 mmHg 82%
    01:00 +14°C° 0 mm 2 m/s 668 mmHg 81%
    02:00 +13°C° 0 mm 2 m/s 668 mmHg 81%
    03:00 +13°C° 0 mm 2 m/s 668 mmHg 81%
    04:00 +13°C° 0 mm 2 m/s 668 mmHg 82%
    05:00 +15°C° 0 mm 2 m/s 669 mmHg 78%
    06:00 +17°C° 0 mm 2 m/s 669 mmHg 75%
    07:00 +18°C° 0 mm 2 m/s 670 mmHg 72%
    08:00 +20°C° 0 mm 2 m/s 670 mmHg 64%
    09:00 +21°C° 0 mm 2 m/s 671 mmHg 56%
    10:00 +24°C° 0 mm 2 m/s 671 mmHg 48%
    11:00 +24°C° 0,1 mm 2 m/s 671 mmHg 48%
    12:00 +24°C° 0,1 mm 2 m/s 671 mmHg 48%
    13:00 +25°C° 0,1 mm 2 m/s 671 mmHg 47%
    14:00 +24°C° 0,2 mm 2 m/s 671 mmHg 51%
    15:00 +24°C° 0,2 mm 2 m/s 670 mmHg 54%
    16:00 +23°C° 0,2 mm 2 m/s 670 mmHg 57%
    17:00 +22°C° 0,4 mm 1 m/s 670 mmHg 62%
    18:00 +20°C° 0,4 mm 1 m/s 670 mmHg 66%
    19:00 +19°C° 0,4 mm 1 m/s 669 mmHg 71%
    20:00 +18°C° 0,1 mm 1 m/s 669 mmHg 72%
    21:00 +16°C° 0,1 mm 1 m/s 669 mmHg 73%
    22:00 +15°C° 0,1 mm 1 m/s 670 mmHg 74%
    23:00 +15°C° 0,1 mm 1 m/s 669 mmHg 73%

    Après-demain, 21 Juin, Jeudi

    Heure Température Précipitation Vent Pression Humidité
    00:00 +15°C° 0,1 mm 1 m/s 669 mmHg 73%
    01:00 +14°C° 0,1 mm 1 m/s 669 mmHg 72%
    02:00 +14°C° 0 mm 1 m/s 669 mmHg 72%
    03:00 +14°C° 0 mm 1 m/s 668 mmHg 72%
    04:00 +14°C° 0 mm 1 m/s 668 mmHg 72%
    05:00 +16°C° 0 mm 1 m/s 669 mmHg 68%
    06:00 +18°C° 0 mm 1 m/s 669 mmHg 65%
    07:00 +20°C° 0 mm 1 m/s 670 mmHg 62%
    08:00 +22°C° 0,1 mm 1 m/s 670 mmHg 57%
    09:00 +23°C° 0,1 mm 1 m/s 670 mmHg 52%
    10:00 +24°C° 0,1 mm 1 m/s 670 mmHg 47%
    11:00 +24°C° 0,2 mm 1 m/s 670 mmHg 49%
    12:00 +24°C° 0,2 mm 1 m/s 670 mmHg 51%
    13:00 +24°C° 0,2 mm 2 m/s 670 mmHg 53%
    14:00 +24°C° 1,2 mm 2 m/s 669 mmHg 56%
    15:00 +23°C° 1,2 mm 2 m/s 669 mmHg 59%
    16:00 +23°C° 1,2 mm 2 m/s 668 mmHg 61%
    17:00 +20°C° 1,4 mm 2 m/s 668 mmHg 68%
    18:00 +20°C° 1,4 mm 1 m/s 668 mmHg 75%
    19:00 +18°C° 1,4 mm 1 m/s 667 mmHg 81%
    20:00 +18°C° 0,2 mm 1 m/s 667 mmHg 82%
    21:00 +16°C° 0,2 mm 1 m/s 667 mmHg 83%
    22:00 +16°C° 0,2 mm 1 m/s 667 mmHg 83%
    23:00 +15°C° 0 mm 1 m/s 667 mmHg 84%

    22 Juin, Vendredi

    Heure Température Précipitation Vent Pression Humidité
    00:00 +15°C° 0 mm 1 m/s 667 mmHg 84%
    01:00 +14°C° 0 mm 1 m/s 667 mmHg 84%
    02:00 +14°C° 0 mm 1 m/s 666 mmHg 84%
    03:00 +14°C° 0 mm 1 m/s 666 mmHg 84%
    04:00 +13°C° 0 mm 1 m/s 666 mmHg 84%
    05:00 +15°C° 0 mm 1 m/s 666 mmHg 80%
    06:00 +18°C° 0 mm 1 m/s 667 mmHg 77%
    07:00 +19°C° 0 mm 1 m/s 667 mmHg 73%
    08:00 +20°C° 0,1 mm 1 m/s 667 mmHg 68%
    09:00 +21°C° 0,1 mm 2 m/s 668 mmHg 64%
    10:00 +23°C° 0,1 mm 2 m/s 668 mmHg 59%
    11:00 +22°C° 0,4 mm 3 m/s 668 mmHg 59%
    12:00 +22°C° 0,4 mm 3 m/s 667 mmHg 59%
    13:00 +24°C° 0,4 mm 3 m/s 667 mmHg 58%
    14:00 +22°C° 0,4 mm 3 m/s 667 mmHg 60%
    15:00 +22°C° 0,4 mm 3 m/s 667 mmHg 61%
    16:00 +22°C° 0,4 mm 3 m/s 667 mmHg 63%
    17:00 +20°C° 0,2 mm 2 m/s 666 mmHg 68%
    18:00 +19°C° 0,2 mm 2 m/s 666 mmHg 74%
    19:00 +18°C° 0,2 mm 1 m/s 666 mmHg 79%
    20:00 +18°C° 0,2 mm 1 m/s 666 mmHg 81%
    21:00 +16°C° 0,2 mm 1 m/s 666 mmHg 83%
    22:00 +15°C° 0,2 mm 1 m/s 666 mmHg 85%
    23:00 +15°C° 0 mm 1 m/s 666 mmHg 86%

    23 Juin, Samedi

    Heure Température Précipitation Vent Pression Humidité
    00:00 +14°C° 0 mm 1 m/s 666 mmHg 86%
    01:00 +14°C° 0 mm 1 m/s 666 mmHg 87%
    02:00 +14°C° 0 mm 1 m/s 666 mmHg 87%
    03:00 +13°C° 0 mm 1 m/s 665 mmHg 87%
    04:00 +13°C° 0 mm 1 m/s 665 mmHg 87%
    05:00 +14°C° 0 mm 1 m/s 666 mmHg 83%
    06:00 +16°C° 0 mm 1 m/s 667 mmHg 79%
    07:00 +18°C° 0 mm 1 m/s 667 mmHg 75%
    08:00 +19°C° 0,2 mm 1 m/s 668 mmHg 72%
    09:00 +20°C° 0,2 mm 1 m/s 668 mmHg 68%
    10:00 +21°C° 0,2 mm 1 m/s 668 mmHg 65%
    11:00 +20°C° 1 mm 2 m/s 668 mmHg 67%
    12:00 +20°C° 1 mm 2 m/s 668 mmHg 70%
    13:00 +19°C° 1 mm 2 m/s 668 mmHg 72%
    14:00 +19°C° 1,3 mm 2 m/s 668 mmHg 75%
    15:00 +18°C° 1,3 mm 2 m/s 667 mmHg 77%
    16:00 +18°C° 1,3 mm 2 m/s 667 mmHg 79%
    17:00 +17°C° 0,4 mm 2 m/s 667 mmHg 82%
    18:00 +16°C° 0,4 mm 1 m/s 667 mmHg 84%
    19:00 +15°C° 0,4 mm 1 m/s 667 mmHg 87%
    20:00 +15°C° 0,1 mm 1 m/s 667 mmHg 88%
    21:00 +14°C° 0,1 mm 1 m/s 667 mmHg 88%
    22:00 +14°C° 0,1 mm 1 m/s 667 mmHg 89%
    23:00 +13°C° 0 mm 2 m/s 667 mmHg 89%

    24 Juin, Dimanche

    Heure Température Précipitation Vent Pression Humidité
    00:00 +13°C° 0 mm 2 m/s 667 mmHg 89%
    01:00 +13°C° 0 mm 2 m/s 666 mmHg 89%
    02:00 +13°C° 0 mm 2 m/s 666 mmHg 88%
    03:00 +12°C° 0 mm 2 m/s 666 mmHg 88%
    04:00 +12°C° 0 mm 2 m/s 666 mmHg 88%
    05:00 +13°C° 0 mm 2 m/s 667 mmHg 84%
    06:00 +15°C° 0 mm 2 m/s 667 mmHg 80%
    07:00 +16°C° 0 mm 2 m/s 667 mmHg 77%
    08:00 +17°C° 0,2 mm 2 m/s 668 mmHg 74%
    09:00 +18°C° 0,2 mm 2 m/s 668 mmHg 71%
    10:00 +19°C° 0,2 mm 2 m/s 668 mmHg 68%
    11:00 +19°C° 1,2 mm 2 m/s 668 mmHg 68%
    12:00 +19°C° 1,2 mm 2 m/s 668 mmHg 68%
    13:00 +21°C° 1,2 mm 1 m/s 668 mmHg 68%
    14:00 +21°C° 1,6 mm 1 m/s 668 mmHg 69%
    15:00 +20°C° 1,6 mm 1 m/s 668 mmHg 70%
    16:00 +20°C° 1,6 mm 1 m/s 667 mmHg 71%
    17:00 +19°C° 0,8 mm 1 m/s 667 mmHg 75%
    18:00 +18°C° 0,8 mm 1 m/s 667 mmHg 79%
    19:00 +16°C° 0,8 mm 1 m/s 667 mmHg 83%
    20:00 +15°C° 0,4 mm 1 m/s 667 mmHg 85%
    21:00 +15°C° 0,4 mm 1 m/s 667 mmHg 86%
    22:00 +14°C° 0,4 mm 1 m/s 667 mmHg 88%
    23:00 +14°C° 0,3 mm 1 m/s 667 mmHg 88%
    Voir plus